Regional Weather Roundup
Issued by NWS

Home | Current Version | Previous Version | Text Only | Print | Product List | Glossary Off
Versions: 1 2 3 4 5 6 7 8 9 10 11 12 13 14 15 16 17 18 19 20 21 22 23 24 25 26 27 28 29 30 31 32 33 34 35 36 37 38 39 40 41 42 43 44 45 46 47 48 49 50

000
ASUS43 KLOT 182103
RWRIL

ILLINOIS REGIONAL WEATHER ROUNDUP
NATIONAL WEATHER SERVICE CHICAGO/ROMEOVILLE IL
400 PM CDT FRI AUG 18 2017

NOTE: "FAIR" INDICATES FEW OR NO CLOUDS BELOW 12,000 FEET WITH NO
SIGNIFICANT WEATHER AND/OR OBSTRUCTIONS TO VISIBILITY.

* THESE STATIONS ARE NOT UNDER NWS QUALITY CONTROL. THEY ALSO MAY NOT
  REPORT WEATHER SUCH AS PRECIPITATION OR FOG.

ILZ001-002-007-009-015-016-024-182200-
NORTHWEST ILLINOIS

CITY           SKY/WX    TMP DP  RH WIND       PRES   REMARKS
MOLINE         PTSUNNY   82  62  50 SW8       29.87F HX  83
STERLING*      MOSUNNY   79  63  57 W9        29.88F HX  80
SAVANNA*       SUNNY     80  59  49 NW6       29.88S HX  80
$$

ILZ003-004-008-010-011-017-018-182200-
NORTH CENTRAL ILLINOIS

CITY           SKY/WX    TMP DP  RH WIND       PRES   REMARKS
ROCKFORD       MOSUNNY   80  61  52 W12       29.88S HX  81
FREEPORT*      SUNNY     77  61  56 W13       29.90S
ROCHELLE*      SUNNY     78  62  57 SW9       29.88F HX  80
$$

ILZ005-006-012>014-019>023-182200-
NORTHEAST ILLINOIS

CITY           SKY/WX    TMP DP  RH WIND       PRES   REMARKS
CHICAGO-OHARE  MOSUNNY   82  59  45 W13       29.84F HX  82
CHICAGO-MIDWAY MOSUNNY   82  60  47 W13G23    29.84F HX  82
AURORA         SUNNY     80  61  52 W13       29.87F HX  81
LANSING*       SUNNY     81  60  48 W10G20    29.86F HX  81
JOLIET*        MOSUNNY   82  65  57 W7        29.87F HX  83
WAUKEGAN       MOSUNNY   77  64  64 VRB5      29.84S
DUPAGE AIRPORT SUNNY     79  63  57 W13G22    29.86S HX  80
WHEELING       SUNNY     81  61  50 W13       29.86S HX  82
MORRIS*        SUNNY     80  62  53 W13       29.87S HX  82
NORTHERLY ISL    N/A     81  56  42 SW9         N/A  HX  81
$$

LMZ740>746-182200-
SOUTHERN LAKE MICHIGAN

STATION/POSITION SKY/WX   TEMP    WIND        PRES    VSBY  WAVE
                          AIR SEA DIR/SP/G                  HT/PER
                          (F)     (DEG/KT/KT) (MB)    (MI)  (FT/S)
SOUTHERN BUOY              70 71  310/  8/ 10 1010.4          3/ 5
WILMETTE HARBOR            76 73  280/  8/ 12   N/A           1/ 3
HARRISON CRIB              80     280/ 12/ 14   N/A
CALUMET HARBOR             80     220/  9/ 13 1010.3S
BURNS HARBOR               73      20/  3/  4 1011.2F
MICHIGAN CITY              76        CALM       N/A
MICHIGAN CITY 6N           73 75   CALM  /  2   N/A           3/ 5
ST. JOSEPH                 72 74  260/  2/  4 1010.9F         3/ 5
$$

ILZ025>027-034>036-040-047-049-050-058-095>099-182200-
WEST-CENTRAL ILLINOIS

CITY           SKY/WX    TMP DP  RH WIND       PRES   REMARKS
QUINCY         CLOUDY    85  66  53 S9        29.89F HX  87
GALESBURG*     MOSUNNY   82  66  57 S6        29.90F HX  84
MACOMB*        CLOUDY    79  68  68 SW6       29.91F HX  81
$$

ILZ028>032-037-038-041>044-048-051>054-059>061-182200-
CENTRAL ILLINOIS

CITY           SKY/WX    TMP DP  RH WIND       PRES   REMARKS
BLOOMINGTON    SUNNY     81  65  58 SW10G18   29.91F HX  83
DECATUR        SUNNY     85  61  44 W8        29.92S HX  85
PEORIA         CLOUDY    83  66  56 S12       29.88F HX  85
LACON*         SUNNY     82  62  49 W7        29.88S HX  83
LINCOLN*       SUNNY     85  66  53 S5        29.90F HX  87
SPRINGFIELD    SUNNY     86  67  52 SW9       29.91F HX  89
TAYLORVILLE    NOT AVBL
$$

ILZ033-039-045-046-055>057-062-063-182200-
EAST-CENTRAL ILLINOIS

CITY           SKY/WX    TMP DP  RH WIND       PRES   REMARKS
CHAMPAIGN      SUNNY     83  63  50 SW8       29.92S HX  84
MATTOON        SUNNY     83  63  50 W7        29.92F HX  84
PARIS*         SUNNY     83  64  52 W6        29.92F HX  84
$$

ILZ079-100>102-182200-
SOUTHWEST ILLINOIS

CITY           SKY/WX    TMP DP  RH WIND       PRES   REMARKS
ALTON          MOSUNNY   84  66  54 SW6       29.94F HX  86
BELLEVILLE     SUNNY     87  65  47 S7        29.94F HX  89
CAHOKIA*       SUNNY     89  61  38 VRB3      29.93F HX  89
SPARTA*        CLOUDY    85  66  52 W3        29.96F HX  87
$$

ILZ064>066-069>071-074>076-080>082-084>086-088>090-092>094-182200-
SOUTH-CENTRAL ILLINOIS

CITY           SKY/WX    TMP DP  RH WIND       PRES   REMARKS
CARBONDALE     SUNNY     83  67  58 W5        29.96S HX  85
CAIRO*         SUNNY     86  66  52 CALM      29.95F HX  88
EFFINGHAM*     SUNNY     86  64  47 SW7       29.95S HX  87
MARION         MOSUNNY   86  63  45 NW9       29.97S HX  87
MT. VERNON     SUNNY     87  63  44 W5        29.95F HX  88
CENTRALIA*     SUNNY     86  66  49 SW3       29.95S HX  88
SALEM*         SUNNY     87  64  46 W6        29.95F HX  88
METROPOLIS*    SUNNY     87  65  48 SW7       29.95F HX  89
$$

ILZ067-068-072-073-078-083-087-091-182200-
SOUTHEAST ILLINOIS

CITY           SKY/WX    TMP DP  RH WIND       PRES   REMARKS
LAWRENCEVILLE  SUNNY     87  64  46 W8        29.93S HX  88
FLORA*         SUNNY     86  65  49 W5        29.94F HX  88
FAIRFIELD*     SUNNY     86  61  42 W3        29.93F HX  86
HARRISBURG*    SUNNY     86  65  49 CALM      29.96S HX  87
ROBINSON*      SUNNY     83  65  53 NW9       29.93F HX  85
CARMI*         SUNNY     84  67  57 W9        29.94S HX  87
$$

ABBREVIATIONS USED IN REMARKS
   TC - TEMPERATURE IN CELSIUS
  WCI - WIND CHILL INDEX
   HX - HEAT INDEX
  VSB - VISIBILITY
$$




USA.gov is the U.S. government's official web portal to all federal, state and local government web resources and services.